COSMOS 621

Satellite information

Favourite Embed

Satellite Type and Status

PAYLOADIN ORBIT

Key statistics

Satellite COSMOS 621 at a glance.

Uptime

18945

Days in orbit

Revolutions

≈ 12.5

Per day

Orbit

LEO

Low Earth Orbit

Inclination

74.0

Latest

Satellite identification and parameters

Extended collection of information and parameters for COSMOS 621.

Object identification

Identified? True

Debris? False

Object name: COSMOS 621

International designator: 1973-104E

Object number (NORAD): 6989

Object ID (CCSDS): 6989

Country: COMMONWEALTH OF INDEPENDENT STATES (CIS)

Current information (Y/N): Y

RCS size: MEDIUM

Orbital parameters

Period: 114.771 minutes

Inclination: 74.0311 deg

SMA: 7823.149 km

Apoapsis: 1484.39 km

Periapsis: 1405.638 km

RAAN: 52.3769 deg

Eccentricy: 0.0050333

Argument of periapsis: 192.2909 deg

Mean anomaly: 322.3074 deg

Mean motion: 12.54672419 rev/day

Mean motion (dot): -0.0000001 rev/day2

B* drag term: 0.000040332 1/REarth

Two-line elements (TLE)

Creation date: Oct. 31, 2025, 10:56 p.m.

Reference frame: TEME

Reference center: EARTH

Epoch: Oct. 31, 2025, 5:47 p.m. UTC

TLE line 0: 0 COSMOS 621

TLE line 1: 1 6989U 73104E 25304.74119264 -.00000010 00000-0 40332-4 0 9993

TLE line 2: 2 6989 74.0311 52.3769 0050333 192.2909 322.3074 12.54672419375601

Live tracking on map

Real-time ground track for satellite COSMOS 621.

In-orbit conjunctions

There are no conjunctions computed for COSMOS 621, at the moment. Check back to stay up to date, as we update our databases every day.

Go to all conjunctions

Associated space launch

Military communications satellites

COSMOS 621 was lifted into orbit during the mission ‘Kosmos-3M | Strela-1M 57-64’, on board a Kosmos-3M space rocket.

The launch took place on Dec. 19, 1973, 9:43 a.m. from 132/2.

For more information about the launch, click the button.

Launch to space Kosmos-3M | Strela-1M 57-64
Kosmos-3M | Strela-1M 57-64

Agency: N/A

Status: Launch Successful

Launch date: Dec. 19, 1973, 9:43 a.m. UTC

Rocket: Kosmos-3M

Launch pad: 132/2

Location: Plesetsk Cosmodrome, Russian Federation

...

Latest news about this satellite

There are no fresh news available about this satellite. Check back as we update our databases every day.


Newsletter sign-up

Weekly statistics, charts and insights to help you stay on top of the space industry.